Regional Weather Roundup
Issued by NWS

Home | Current Version | Previous Version | Text Only | Print | Product List | Glossary On
Versions: 1 2 3 4 5 6 7 8 9 10 11 12 13 14 15 16 17 18 19 20 21 22 23 24 25 26 27 28
000
ASUS44 KJAN 081410
RWRMS

MISSISSIPPI HOURLY WEATHER ROUNDUP
NATIONAL WEATHER SERVICE JACKSON MS
800 AM CST THU DEC 08 2016

NOTE: "FAIR: INDICATES FEW OR NO CLOUDS BELOW 12,000 FEET WITH NO
SIGNIFICANT WEATHER AND/OR OBSTRUCTIONS TO VISIBILITY.

MSZ001>002-007>008-010>013-018>021-025>028-034>036-081500-
NORTHWEST MISSISSIPPI

CITY           SKY/WX    TMP DP  RH WIND       PRES   REMARKS
CLEVELAND      CLOUDY    38  30  72 N13       30.47R WCI  31
GREENWOOD      CLOUDY    41  25  53 N10       30.45R
GREENVILLE     CLOUDY    39  28  64 N14       30.46R WCI  31
OXFORD         FAIR      36  25  64 N10G16    30.47R WCI  28
WINONA         FAIR      39  27  61 N10G16    30.41R WCI  32
$$

MSZ003>006-009-014>017-022>024-029>033-037>039-081500-
NORTHEAST MISSISSIPPI

CITY           SKY/WX    TMP DP  RH WIND       PRES   REMARKS
COLUMBUS AFB   CLOUDY    41  29  61 N13       30.39R
GOLDN TRIANGLE PTSUNNY   41  27  56 N14       30.36R
STARKVILLE     FAIR      41  28  60 N7        30.41R
TUPELO         CLOUDY    38  24  57 NW13      30.41R WCI  30
$$

MSZ040-058-081500-
CENTRAL MISSISSIPPI

CITY           SKY/WX    TMP DP  RH WIND       PRES   REMARKS
JACKSON INTL   PTSUNNY   44  35  70 N13       30.38R
JACKSON HAWKNS CLOUDY    44  33  65 N7        30.40R
MADISON        PTSUNNY   41  32  70 N6        30.40R
MERIDIAN KEY   CLOUDY    45  34  65 N14       30.36R
MERIDIAN NAS   PTSUNNY   44  33  65 N9        30.38R
VICKSBURG VKS  CLOUDY    43  32  65 N10G17    30.42R
$$

MSZ059>079-081500-
SOUTH MISSISSIPPI

CITY           SKY/WX    TMP DP  RH WIND       PRES   REMARKS
BROOKHAVEN     LGT RAIN N/A N/A N/A N9        30.37R
COLUMBIA       CLOUDY    46  41  81 N8        30.38R
HATTIESBURG    CLOUDY    46  39  76 N9        30.35R
LAUREL         CLOUDY    45  36  72 N10       30.35R
MCCOMB         CLOUDY    46  42  86 N9        30.34R FOG
NATCHEZ        CLOUDY    43  37  81 N10       30.38R
PINE BELT      CLOUDY    45  36  70 N13       30.37R
$$

MSZ080>082-081500-
COASTAL MISSISSIPPI

CITY           SKY/WX    TMP DP  RH WIND       PRES   REMARKS
BAY ST LOUIS   CLOUDY    50  43  76 N7G16     30.30R
BILOXI         CLOUDY    50  46  84 N15       30.29R
PASCAGOULA     CLOUDY    50  41  71 N14       30.30R
GULFPORT       CLOUDY    51  45  79 N12G22    30.29R
$$

LAZ007>009-015>016-023>026-081500-
NORTHEAST LOUISIANA

CITY           SKY/WX    TMP DP  RH WIND       PRES   REMARKS
BASTROP        CLOUDY    40  28  62 N3        30.46S
TALLULAH/VBURG CLOUDY    42  31  64 N14       30.44R
VIDALIA        CLOUDY    43  37  79 N13G23    30.42R
$$




USA.gov is the U.S. government's official web portal to all federal, state and local government web resources and services.